Content
SEND FEEDBACK

Daily
Averages
Monthly
Summary
Canada

VANCOUVER, BRITISH COLUMBIA


Home > North America > Canada > British Columbia
Elevation: 7 feet     Latitude: 49 11N     Longitude: 123 10W

WEATHER
 
SELECT A DAY
Number of Records: 253,003;   Date Range: 5/15/97 - 10/21/14
 
SHARE

PRINT THIS DATA

[ ← Previous Day ]
WEATHER ALMANAC - MARCH 6, 2013
[ Next Day → ]
[ °C ]   °F
Weather ElementAverageHighLow
Temperature41.3 °F42.8 °F (9:15 am)41 °F (12:35 am)
Dewpoint39.4 °F41 °F (7:15 pm)37.4 °F (4:15 pm)
Humidity92.5 %100 % (7:15 pm)87 % (9:15 am)
Barometer29.70 in29.86 in (11:55 pm)29.62 in (7:15 am)
Wind Speed7.1 mph18.4 mph (8:35 am)
Wind Gust23 mph (7:15 am)
Weather ElementAverage
Visibility8 mi
Wind DirectionSSW (219 °)

Weather ElementTotal
Precipitation---
Heating Degree Days23.1 (Base 65)
Averaged from 68 records on March 6, 2013
WEATHER CONDITIONS BREAKOUT
WIND DIRECTION BREAKOUT
WEATHER BY HOUR - MARCH 6, 2013
[ °C ]   °F
Local TimeTemperatureDewpointHumidityBarometerVisibilityWind DirectionWind SpeedGust SpeedPrecipitationEventsConditions
12:35 AM41.0 °F39.2 °F93 %29.74 in10.0 miNorth (10°)5.8 mphOvercast
12:55 AM41.0 °F39.2 °F93 %29.74 in10.0 miCalmOvercast
1:15 AM41.0 °F39.2 °F93 %29.73 in10.0 miNorth (360°)4.6 mphOvercast
1:35 AM41.0 °F39.2 °F93 %29.73 in10.0 miNorth (360°)4.6 mphOvercast
1:55 AM41.0 °F39.2 °F93 %29.72 in10.0 miNorth (10°)5.8 mphOvercast
2:15 AM41.0 °F39.2 °F93 %29.72 in10.0 miNorth (10°)4.6 mphOvercast
2:35 AM41.0 °F39.2 °F93 %29.70 in10.0 miNorth (360°)5.8 mphOvercast
2:55 AM41.0 °F39.2 °F93 %29.70 in10.0 miNorth (360°)6.9 mphOvercast
3:15 AM41.0 °F39.2 °F93 %29.69 in10.0 miNorth (360°)5.8 mphOvercast
3:35 AM41.0 °F39.2 °F93 %29.68 in10.0 miNorth (360°)8.1 mphOvercast
3:55 AM41.0 °F39.2 °F93 %29.67 in10.0 miNorth (360°)8.1 mphOvercast
4:15 AM41.0 °F39.2 °F93 %29.67 in10.0 miNorth (360°)10.4 mphMostly Cloudy
4:35 AM41.0 °F39.2 °F93 %29.66 in10.0 miNorth (360°)9.2 mphScattered Clouds
4:55 AM41.0 °F39.2 °F93 %29.66 in10.0 miNorth (360°)10.4 mphPartly Cloudy
5:15 AM41.0 °F39.2 °F93 %29.65 in10.0 miNorth (350°)13.8 mphClear
5:35 AM41.0 °F39.2 °F93 %29.65 in10.0 miNorth (350°)15.0 mphPartly Cloudy
5:55 AM41.0 °F39.2 °F93 %29.65 in10.0 miNorth (350°)13.8 mphScattered Clouds
6:15 AM41.0 °F39.2 °F93 %29.64 in10.0 miNorth (350°)12.7 mphMostly Cloudy
6:35 AM41.0 °F39.2 °F93 %29.64 in10.0 miNorthMostly Cloudy
6:55 AM41.0 °F39.2 °F93 %29.63 in10.0 miNorth (350°)15.0 mph19.6 mphMostly Cloudy
7:15 AM41.0 °F39.2 °F93 %29.62 in10.0 miNNW (340°)16.1 mph23.0 mphMostly Cloudy
7:35 AM41.0 °F39.2 °F93 %29.62 in10.0 miNNW (340°)13.8 mph21.9 mphMostly Cloudy
7:55 AM41.0 °F39.2 °F93 %29.62 in10.0 miNorth (350°)16.1 mph23.0 mphMostly Cloudy
8:15 AM41.0 °F39.2 °F93 %29.62 in10.0 miNorth (350°)17.3 mph21.9 mphScattered Clouds
8:35 AM41.0 °F39.2 °F93 %29.62 in10.0 miNorth (350°)18.4 mphScattered Clouds
9:15 AM42.8 °F39.2 °F87 %29.63 in10.0 miNorth (350°)13.8 mph20.7 mphScattered Clouds
9:35 AM42.8 °F39.2 °F87 %29.63 in10.0 miNorth (350°)13.8 mph19.6 mphScattered Clouds
9:55 AM42.8 °F39.2 °F87 %29.63 in9.0 miNorth (350°)13.8 mphRainLight Rain
10:15 AM42.8 °F39.2 °F87 %29.63 in9.0 miNorth (350°)13.8 mph19.6 mphRainLight Rain
10:35 AM42.8 °F39.2 °F87 %29.63 in8.0 miNNW (330°)11.5 mphRainLight Rain
11:15 AM42.8 °F39.2 °F87 %29.63 in8.0 miNNW (340°)13.8 mph20.7 mphRainLight Rain
11:35 AM42.8 °F39.2 °F87 %29.64 in7.0 miNNW (330°)12.7 mph19.6 mphRainLight Rain
11:55 AM42.8 °F39.2 °F87 %29.64 in6.0 miNNW (330°)11.5 mph18.4 mphRainLight Rain
12:15 PM42.8 °F39.2 °F87 %29.65 in7.0 miNNW (330°)11.5 mphRainLight Rain
12:35 PM42.8 °F39.2 °F87 %29.65 in5.0 miNNW (340°)8.1 mphRainLight Rain
12:55 PM41.0 °F39.2 °F93 %29.65 in5.0 miNNW (340°)9.2 mphRainLight Rain
1:15 PM42.8 °F39.2 °F87 %29.66 in5.0 miNNW (340°)8.1 mphRainLight Rain
1:35 PM41.0 °F39.2 °F93 %29.66 in4.0 miNNW (330°)8.1 mphRainRain
1:55 PM41.0 °F39.2 °F93 %29.66 in5.0 miNNW (330°)5.8 mphRainLight Rain
2:15 PM41.0 °F39.2 °F93 %29.67 in5.0 miNNW (330°)4.6 mphRainLight Rain
2:35 PM41.0 °F39.2 °F93 %29.67 in4.0 miCalmRainLight Rain
2:55 PM42.8 °F39.2 °F87 %29.68 in5.0 miCalmRainLight Rain
3:15 PM42.8 °F39.2 °F87 %29.68 in7.0 miCalmRainLight Rain
3:35 PM41.0 °F39.2 °F93 %29.69 in5.0 miCalmRainLight Rain
3:55 PM41.0 °F39.2 °F93 %29.69 in5.0 miCalmRainLight Rain
4:15 PM41.0 °F37.4 °F87 %29.70 in7.0 miCalmRainLight Rain
4:35 PM41.0 °F39.2 °F93 %29.70 in7.0 miCalmRainLight Rain
4:55 PM41.0 °F39.2 °F93 %29.71 in5.0 miCalmRainLight Rain
5:15 PM41.0 °F39.2 °F93 %29.71 in5.0 miCalmRainLight Rain
5:35 PM41.0 °F39.2 °F93 %29.72 in6.0 miCalmRainLight Rain
5:55 PM41.0 °F39.2 °F93 %29.72 in7.0 miCalmRainLight Rain
6:15 PM41.0 °F39.2 °F93 %29.73 in8.0 miCalmRainLight Rain
6:35 PM41.0 °F39.2 °F93 %29.74 in7.0 miCalmRainLight Rain
7:15 PM41.0 °F41.0 °F100 %29.76 in5.0 miSouth (180°)4.6 mphRainLight Rain
7:35 PM41.0 °F41.0 °F100 %29.77 in8.0 miSouth (180°)3.5 mphRainLight Rain
7:55 PM41.0 °F41.0 °F100 %29.77 in6.0 miSouth (190°)5.8 mphRainLight Rain
8:15 PM41.0 °F39.2 °F93 %29.78 in6.0 miSouth (170°)3.5 mphRainLight Rain
8:35 PM41.0 °F39.2 °F93 %29.79 in8.0 miSouth (170°)3.5 mphRainLight Rain
8:55 PM41.0 °F41.0 °F100 %29.79 in8.0 miSouth (180°)3.5 mphRainLight Rain
9:15 PM41.0 °F41.0 °F100 %29.80 in9.0 miSouth (180°)4.6 mphMostly Cloudy
9:35 PM41.0 °F41.0 °F100 %29.81 in7.0 miSouth (180°)3.5 mphRainLight Rain
9:55 PM41.0 °F41.0 °F100 %29.82 in7.0 miSouth (180°)4.6 mphRainLight Rain
10:15 PM41.0 °F39.2 °F93 %29.83 in5.0 miSSW (210°)8.1 mphRainLight Rain
10:35 PM41.0 °F39.2 °F93 %29.83 in6.0 miSouth (180°)5.8 mphRainLight Rain
10:55 PM41.0 °F39.2 °F93 %29.84 in9.0 miSouth (170°)5.8 mphRainLight Rain
11:15 PM41.0 °F39.2 °F93 %29.85 in10.0 miSouth (180°)5.8 mphOvercast
11:35 PM41.0 °F39.2 °F93 %29.85 in10.0 miSouth (180°)5.8 mphOvercast
11:55 PM41.0 °F39.2 °F93 %29.86 in10.0 miSouth (180°)6.9 mphOvercast
Hourly data recorded from CZBB, located miles away from Vancouver, British Columbia







STORIES FROM OUR PARTNERS